Location: Wildlife_Club
(35.6000°N, 81.4330°W)
Time: 01:47:54
(UTC-04:00)

Amateur Radio Satellites - All Passes

Search period start: 27 June 2016 01:17
Search period end: 28 June 2016 01:17
Location: Wildlife_Club, 35.6000°N, 81.4330°W

Satellite Date Start Highest point End Downlink Frequencies (MHz)
Time Altitude Azimuth
SO-50 27 Jun 01:18:19 01:22:03 23° 50° (NE) 01:25:42 436.795
BUGSAT 1 27 Jun 01:28:59 01:33:05 76° 102° (ESE) 01:37:13 437.445
Cosmos 2504 27 Jun 01:29:56 01:38:02 38° 74° (ENE) 01:45:48 435.465 / 435.565
CUBEBUG 1 27 Jun 01:31:43 01:34:18 15° 266° (W) 01:36:54 437.445
VELOX 1 27 Jun 01:34:23 01:37:06 16° 266° (W) 01:39:48 145.980
NANOSAT C BR1 27 Jun 01:38:59 01:42:46 32° 288° (WNW) 01:46:33 145.865
QB50P1 27 Jun 01:40:53 01:44:35 29° 289° (WNW) 01:48:16 145.935-145.965
POPSAT HIP 1 27 Jun 01:43:58 01:47:35 28° 289° (WNW) 01:51:12 437.405
SWISSCUBE 27 Jun 01:53:04 01:56:13 18° 66° (ENE) 01:59:24 437.505
QB50P2 27 Jun 01:56:17 01:59:18 19° 291° (WNW) 02:02:20 145.880/145.840
POLYITAN 1 27 Jun 01:58:55 02:01:55 19° 292° (WNW) 02:04:55 437.675
DUCHIFAT 1 27 Jun 02:01:08 02:04:12 20° 291° (WNW) 02:07:17 145.980
JAS-2 27 Jun 02:05:02 02:10:40 74° 102° (ESE) 02:15:52 435.910
Cosmos 2491 27 Jun 02:06:17 02:15:03 73° 278° (W) 02:23:49 435.465 / 435.565
ITUPSAT 1 27 Jun 02:17:17 02:21:20 28° 69° (ENE) 02:25:24 437.325
BEESAT 27 Jun 02:17:32 02:21:36 28° 69° (ENE) 02:25:41 436.000
TISAT 1 27 Jun 02:21:16 02:25:11 40° 261° (W) 02:29:08 437.305
PCSat 27 Jun 02:28:49 02:33:38 34° 109° (ESE) 02:38:28 145.827
BEESAT 3 27 Jun 02:41:38 02:44:19 18° 110° (ESE) 02:47:02 437.485
Oscar 19 27 Jun 02:51:04 02:56:12 77° 102° (ESE) 03:01:19 437.125/150
Gurwin Techsat 1B 27 Jun 02:52:56 02:57:42 32° 97° (E) 03:02:26 435.225
SO-50 27 Jun 02:58:25 03:02:35 34° 247° (WSW) 03:06:37 436.795
YUBILEINY 27 Jun 03:00:34 03:06:12 19° 280° (W) 03:11:50 435.215
ITAMSAT 1 27 Jun 03:11:01 03:14:07 16° 93° (E) 03:17:12 435.822/435.867
BEESAT 2 27 Jun 03:15:08 03:18:19 23° 112° (ESE) 03:21:31 435.950
MOZHAYETS 4 27 Jun 03:16:29 03:17:49 11° 64° (ENE) 03:19:09
O/OREOS (USA 219) 27 Jun 03:20:06 03:24:22 44° 106° (ESE) 03:28:38 437.305
Cosmos 2504 27 Jun 03:23:13 03:31:24 43° 273° (W) 03:39:16 435.465 / 435.565
SWISSCUBE 27 Jun 03:29:07 03:33:39 43° 261° (W) 03:38:13 437.505
KKS-1 27 Jun 03:37:38 03:41:00 22° 68° (ENE) 03:44:22 437.445
JAS-2 27 Jun 03:52:48 03:54:52 12° 301° (WNW) 03:56:55 435.910
ITUPSAT 1 27 Jun 03:55:04 03:59:04 26° 264° (W) 04:03:06 437.325
BEESAT 27 Jun 03:55:22 03:59:17 25° 264° (W) 04:03:16 436.000
Cosmos 2491 27 Jun 04:10:30 04:13:27 12° 298° (WNW) 04:16:24 435.465 / 435.565
PCSat 27 Jun 04:12:18 04:16:59 29° 305° (NW) 04:21:43 145.827
STARS 27 Jun 04:14:30 04:18:10 27° 70° (ENE) 04:21:50 437.465
BEESAT 3 27 Jun 04:18:16 04:21:45 30° 305° (NW) 04:25:16 437.485
Gurwin Techsat 1B 27 Jun 04:33:03 04:37:29 27° 292° (WNW) 04:41:54 435.225
Oscar 19 27 Jun 04:33:13 04:34:49 11° 298° (WNW) 04:36:26 437.125/150
AO-7 27 Jun 04:47:13 04:55:21 52° 102° (ESE) 05:03:25 29.400- 29.500
ITAMSAT 1 27 Jun 04:48:46 04:53:52 53° 287° (WNW) 04:58:54 435.822/435.867
MOZHAYETS 4 27 Jun 04:49:47 04:54:22 66° 259° (W) 04:58:59
BEESAT 2 27 Jun 04:52:46 04:56:03 24° 307° (NW) 04:59:20 435.950
AIST 1 27 Jun 04:55:42 04:59:45 42° 80° (E) 05:03:46
O/OREOS (USA 219) 27 Jun 05:01:15 05:03:58 16° 301° (WNW) 05:06:41 437.305
GONETS M04 27 Jun 05:04:20 05:09:51 18° 67° (ENE) 05:15:20
KKS-1 27 Jun 05:13:32 05:17:22 29° 263° (W) 05:21:13 437.445
AIST 2 27 Jun 05:19:21 05:22:52 28° 112° (ESE) 05:26:24 435.215
STARS 27 Jun 05:51:04 05:54:27 22° 264° (W) 05:57:52 437.465
Cosmos 2499 27 Jun 06:11:47 06:19:34 34° 73° (ENE) 06:26:54 435.465 / 435.565
CUBESAT XI-V 27 Jun 06:12:24 06:17:06 77° 257° (WSW) 06:21:50 437.345
NOAA 15 27 Jun 06:13:02 06:15:07 12° 91° (E) 06:17:12 137.62
NOAA 18 27 Jun 06:23:50 06:26:17 13° 92° (E) 06:28:45 137.9125
HORYU 2 27 Jun 06:32:09 06:36:38 70° 285° (WNW) 06:41:06 437.375
AIST 1 27 Jun 06:35:12 06:36:52 12° 274° (W) 06:38:34
AO-7 27 Jun 06:40:33 06:47:44 33° 299° (WNW) 06:54:54 29.400- 29.500
Cubesat XI-IV 27 Jun 06:42:30 06:46:11 18° 94° (E) 06:49:50 437.490
CUSAT 1 27 Jun 06:45:56 06:49:17 13° 85° (E) 06:52:29 437.405
AO-85 27 Jun 06:49:37 06:52:49 19° 48° (NE) 06:55:49 145.980
STRAND 1 27 Jun 06:52:22 06:56:00 20° 66° (ENE) 06:59:39 437.568
GOMX 1 27 Jun 06:54:29 06:56:05 12° 93° (E) 06:57:42 467.674
AIST 2 27 Jun 06:58:02 07:01:18 23° 308° (NW) 07:04:37 435.215
GONETS M04 27 Jun 06:58:56 07:07:41 83° 264° (W) 07:16:26
LilacSat-2 27 Jun 07:03:11 07:06:25 25° 96° (E) 07:09:39 437.200
PHONESAT 2.4 27 Jun 07:05:54 07:08:19 21° 147° (SSE) 07:10:44 2401.200-2431.200
CUTE-I 27 Jun 07:16:20 07:21:24 40° 99° (E) 07:26:24 437.470
BRITE-PL 27 Jun 07:48:13 07:52:18 58° 285° (WNW) 07:56:25 437.365/2234.400
NOAA 15 27 Jun 07:50:06 07:55:19 67° 286° (WNW) 08:00:29 137.62
HO-68 27 Jun 07:59:51 08:03:05 13° 91° (E) 08:06:19 435.675
DOVE 4 27 Jun 08:01:16 08:05:12 33° 98° (E) 08:09:18 437.250
NOAA 18 27 Jun 08:01:51 08:07:23 70° 286° (WNW) 08:12:53 137.9125
Cosmos 2499 27 Jun 08:04:36 08:12:49 47° 272° (W) 08:20:34 435.465 / 435.565
Cubesat XI-IV 27 Jun 08:21:17 08:26:27 48° 288° (WNW) 08:31:35 437.490
CUSAT 1 27 Jun 08:22:39 08:30:40 82° 97° (E) 08:37:40 437.405
PRISM 27 Jun 08:24:49 08:28:03 22° 69° (ENE) 08:31:17 437.425
AO-85 27 Jun 08:29:23 08:33:27 38° 247° (WSW) 08:37:11 145.980
DANDE 27 Jun 08:29:27 08:37:22 50° 92° (E) 08:45:04 436.750
STRAND 1 27 Jun 08:29:57 08:34:49 43° 261° (W) 08:39:44 437.568
GOMX 1 27 Jun 08:30:21 08:34:22 45° 286° (WNW) 08:38:32 467.674
LilacSat-2 27 Jun 08:37:46 08:40:32 19° 290° (WNW) 08:43:18 437.200
PHONESAT 2.4 27 Jun 08:41:40 08:44:43 66° 341° (NNW) 08:47:47 2401.200-2431.200
CANX-2 27 Jun 08:54:29 08:58:26 35° 98° (E) 09:02:21 2200.000
CUTE-I 27 Jun 08:57:01 09:01:08 23° 294° (WNW) 09:05:14 437.470
GONETS M04 27 Jun 08:59:30 09:03:03 13° 283° (WNW) 09:06:37
COMPASS 1 27 Jun 09:03:26 09:06:22 18° 94° (E) 09:09:17 437.405
CINEMA 3 27 Jun 09:08:35 09:13:04 55° 100° (E) 09:17:44 145.822/145.860
CUTE 1.7 + AOD 2 27 Jun 09:14:37 09:18:49 54° 100° (E) 09:22:59 437.475
CUBEBUG 2 27 Jun 09:17:36 09:21:01 20° 95° (E) 09:24:29 437.445
SEEDS 27 Jun 09:21:40 09:25:44 45° 99° (E) 09:29:46 437.485
ISS 27 Jun 09:25:36 09:28:48 59° 136° (SE) 09:32:01 145.825
DOVE 4 27 Jun 09:39:40 09:42:41 19° 290° (WNW) 09:45:48 437.250
HO-68 27 Jun 09:44:19 09:51:34 89° 282° (WNW) 09:58:46 435.675
ZACube-1 27 Jun 09:51:01 09:54:26 21° 95° (E) 09:57:50 437.345
PRISM 27 Jun 09:59:46 10:03:12 25° 263° (W) 10:06:39 437.425
AUBIESAT-1 27 Jun 10:00:51 10:04:19 28° 103° (ESE) 10:07:58 437.475
Oscar 11 27 Jun 10:03:44 10:07:32 29° 97° (E) 10:11:18 145.826/435.025
AAUSAT CUBESAT 2 27 Jun 10:05:18 10:09:29 85° 104° (ESE) 10:13:37 437.432
UWE-3 27 Jun 10:07:34 10:12:02 49° 99° (E) 10:16:33 435.000/436.395/437.385
CUSAT 1 27 Jun 10:08:12 10:13:07 18° 289° (WNW) 10:17:42 437.405
FUNcube-1 27 Jun 10:08:59 10:13:00 30° 97° (E) 10:17:02 145.935
DANDE 27 Jun 10:12:49 10:20:17 35° 286° (WNW) 10:27:31 436.750
TIGRISAT 27 Jun 10:15:52 10:19:10 22° 69° (ENE) 10:22:32 435.000
PHONESAT 2.4 27 Jun 10:18:50 10:21:38 31° 358° (N) 10:24:25 2401.200-2431.200
UNISAT 6 27 Jun 10:20:07 10:23:43 26° 70° (ENE) 10:27:22 437.425
DELFI C3 27 Jun 10:30:42 10:33:59 24° 96° (E) 10:37:14 145.870
CANX-2 27 Jun 10:31:14 10:33:58 17° 292° (WNW) 10:36:42 2200.000
COMPASS 1 27 Jun 10:38:17 10:41:56 29° 289° (WNW) 10:45:34 437.405
M-CUBED/EXP-1 PRIME 27 Jun 10:38:23 10:42:17 78° 288° (WNW) 10:46:31 437.505
CINEMA 3 27 Jun 10:47:39 10:49:47 13° 293° (WNW) 10:51:56 145.822/145.860
CUTE 1.7 + AOD 2 27 Jun 10:52:45 10:54:08 11° 295° (WNW) 10:55:31 437.475
CUBEBUG 2 27 Jun 10:53:30 10:57:39 34° 288° (WNW) 11:01:53 437.445
QB50P1 27 Jun 10:57:58 10:58:33 10° 65° (ENE) 10:59:08 145.935-145.965
SEEDS 27 Jun 10:59:01 11:01:00 13° 294° (WNW) 11:02:59 437.485
ANTELSAT 27 Jun 10:59:12 11:03:27 78° 76° (ENE) 11:07:49 437.575/2403.000
POPSAT HIP 1 27 Jun 11:00:28 11:01:35 11° 65° (ENE) 11:02:43 437.405
ISS 27 Jun 11:03:24 11:05:30 16° 332° (NNW) 11:07:36 145.825
QB50P2 27 Jun 11:10:46 11:13:22 16° 68° (ENE) 11:15:59 145.880/145.840
POLYITAN 1 27 Jun 11:13:20 11:15:59 17° 68° (ENE) 11:18:39 437.675
DUCHIFAT 1 27 Jun 11:15:14 11:17:39 15° 67° (ENE) 11:20:03 145.980
HUMSAT D 27 Jun 11:17:01 11:21:07 41° 98° (E) 11:25:10 437.325/437.525
PCSat 27 Jun 11:20:16 11:23:41 17° 49° (NE) 11:27:04 145.827
ZACube-1 27 Jun 11:26:39 11:30:42 32° 288° (WNW) 11:34:46 437.345
HO-68 27 Jun 11:34:23 11:38:15 15° 303° (WNW) 11:42:07 435.675
AUBIESAT-1 27 Jun 11:35:40 11:38:37 20° 294° (WNW) 11:41:43 437.475
Oscar 11 27 Jun 11:40:12 11:43:27 21° 291° (WNW) 11:46:42 145.826/435.025
UWE-3 27 Jun 11:45:33 11:48:04 15° 293° (WNW) 11:50:34 435.000/436.395/437.385
FUNcube-1 27 Jun 11:45:34 11:49:02 22° 291° (WNW) 11:52:31 145.935
TIGRISAT 27 Jun 11:52:07 11:55:42 26° 264° (W) 11:59:21 435.000
PHONESAT 2.4 27 Jun 11:55:37 11:58:36 46° 14° (NNE) 12:01:35 2401.200-2431.200
UNISAT 6 27 Jun 11:57:04 12:00:23 22° 265° (W) 12:03:45 437.425
DELFI C3 27 Jun 12:05:42 12:08:41 20° 290° (WNW) 12:11:37 145.870
YUBILEINY 27 Jun 12:06:39 12:11:29 16° 79° (ENE) 12:16:17 435.215
JAS-2 27 Jun 12:12:44 12:19:03 29° 67° (ENE) 12:24:58 435.910
BUGSAT 1 27 Jun 12:16:01 12:19:37 33° 72° (ENE) 12:23:14 437.445
RS-15 27 Jun 12:17:03 12:28:01 61° 111° (ESE) 12:39:35 29.354- 29.394
ESTCUBE 1 27 Jun 12:19:44 12:23:50 34° 98° (E) 12:27:55 437.505/2401.250
Cosmos 2491 27 Jun 12:20:31 12:28:54 49° 78° (ENE) 12:37:15 435.465 / 435.565
NANOSAT C BR1 27 Jun 12:27:30 12:31:38 66° 259° (WSW) 12:35:48 145.865
QB50P1 27 Jun 12:29:40 12:33:47 58° 259° (W) 12:37:55 145.935-145.965
AISAT 27 Jun 12:30:08 12:33:55 28° 97° (E) 12:37:41 437.250
POPSAT HIP 1 27 Jun 12:32:47 12:36:52 54° 260° (W) 12:40:58 437.405
BEESAT 3 27 Jun 12:37:39 12:41:33 55° 58° (ENE) 12:45:24 437.485
UKube-1 27 Jun 12:38:44 12:41:53 20° 95° (E) 12:45:01 .
SPROUT 27 Jun 12:43:33 12:46:05 15° 93° (E) 12:48:39 437.525
QB50P2 27 Jun 12:45:01 12:48:52 35° 262° (W) 12:52:44 145.880/145.840
POLYITAN 1 27 Jun 12:47:41 12:51:29 34° 262° (W) 12:55:20 437.675
DUCHIFAT 1 27 Jun 12:49:08 12:53:00 37° 262° (W) 12:56:53 145.980
HUMSAT D 27 Jun 12:53:53 12:56:21 15° 293° (WNW) 12:58:47 437.325/437.525
DX 1 27 Jun 12:55:08 12:59:12 39° 99° (E) 13:03:15 434.975-435.025
PCSat 27 Jun 13:02:11 13:07:35 68° 246° (WSW) 13:12:56 145.827
50 SAT 27 Jun 13:07:29 13:11:12 86° 283° (WNW) 13:14:51 437.505
BEESAT 2 27 Jun 13:12:35 13:16:35 75° 61° (ENE) 13:20:32 435.950
CUBEBUG 1 27 Jun 13:21:06 13:25:24 67° 284° (WNW) 13:29:40 437.445
VELOX 1 27 Jun 13:25:21 13:29:44 67° 284° (WNW) 13:34:04 145.980
PHONESAT 2.4 27 Jun 13:32:19 13:35:11 36° 210° (SSW) 13:38:03 2401.200-2431.200
O/OREOS (USA 219) 27 Jun 13:32:48 13:37:11 51° 67° (ENE) 13:41:33 437.305
BUGSAT 1 27 Jun 13:52:43 13:55:04 15° 266° (W) 13:57:26 437.445
JAS-2 27 Jun 13:56:08 14:03:42 53° 260° (W) 14:10:44 435.910
ESTCUBE 1 27 Jun 13:57:13 14:00:23 19° 292° (WNW) 14:03:31 437.505/2401.250
YUBILEINY 27 Jun 13:58:18 14:07:00 85° 275° (W) 14:15:49 435.215
Cosmos 2504 27 Jun 14:04:39 14:11:27 32° 84° (E) 14:18:40 435.465 / 435.565
Oscar 19 27 Jun 14:04:49 14:09:58 82° 77° (ENE) 14:15:08 437.125/150
AISAT 27 Jun 14:06:50 14:10:13 22° 291° (WNW) 14:13:35 437.250
TISAT 1 27 Jun 14:07:55 14:11:47 35° 98° (E) 14:15:39 437.305
Gurwin Techsat 1B 27 Jun 14:11:04 14:15:57 39° 71° (ENE) 14:20:51 435.225
UKube-1 27 Jun 14:14:10 14:17:55 30° 289° (WNW) 14:21:39 .
Cosmos 2491 27 Jun 14:18:00 14:25:18 31° 275° (W) 14:32:37 435.465 / 435.565
SPROUT 27 Jun 14:18:12 14:22:09 37° 287° (WNW) 14:26:05 437.525
ITAMSAT 1 27 Jun 14:26:08 14:29:43 19° 65° (ENE) 14:33:19 435.822/435.867
RS-15 27 Jun 14:30:29 14:40:59 40° 314° (NW) 14:52:07 29.354- 29.394
DX 1 27 Jun 14:32:27 14:35:02 16° 293° (WNW) 14:37:39 434.975-435.025
O/OREOS (USA 219) 27 Jun 15:14:26 15:16:03 12° 262° (W) 15:17:41 437.305
AIST 2 27 Jun 15:20:57 15:25:08 86° 242° (WSW) 15:29:16 435.215
JUGNU 27 Jun 15:28:37 15:28:38 10° 165° (SSE) 15:28:39 437.505
SO-50 27 Jun 15:30:52 15:33:33 15° 108° (ESE) 15:36:16 436.795
SWISSCUBE 27 Jun 15:31:56 15:36:41 60° 101° (E) 15:41:24 437.505
AO-7 27 Jun 15:42:44 15:50:45 55° 67° (ENE) 15:58:49 29.400- 29.500
TISAT 1 27 Jun 15:44:29 15:47:08 16° 292° (WNW) 15:49:48 437.305
Gurwin Techsat 1B 27 Jun 15:51:54 15:55:58 22° 265° (W) 16:00:04 435.225
ISS 27 Jun 15:56:03 15:58:39 21° 32° (NNE) 16:01:14 145.825
Cosmos 2504 27 Jun 15:56:47 16:04:25 47° 283° (WNW) 16:12:38 435.465 / 435.565
BEESAT 27 Jun 15:57:21 16:02:09 80° 286° (WNW) 16:06:56 436.000
ITUPSAT 1 27 Jun 15:57:31 16:02:21 82° 284° (WNW) 16:07:08 437.325
YUBILEINY 27 Jun 16:00:38 16:05:06 15° 296° (WNW) 16:09:37 435.215
ITAMSAT 1 27 Jun 16:03:48 16:08:47 47° 260° (W) 16:13:49 435.822/435.867
MOZHAYETS 4 27 Jun 16:47:58 16:52:14 36° 97° (E) 16:56:28
RS-15 27 Jun 16:51:55 16:58:26 16° 347° (NNW) 17:05:05 29.354- 29.394
KKS-1 27 Jun 17:06:35 17:11:00 65° 101° (ESE) 17:15:24 437.445
SO-50 27 Jun 17:08:45 17:13:34 56° 302° (WNW) 17:18:23 436.795
SWISSCUBE 27 Jun 17:11:47 17:13:55 13° 296° (WNW) 17:16:04 437.505
JUGNU 27 Jun 17:13:18 17:16:51 16° 175° (S) 17:20:25 437.505
BRITE-PL 27 Jun 17:21:23 17:22:25 11° 65° (ENE) 17:23:26 437.365/2234.400
AIST 1 27 Jun 17:22:02 17:25:46 29° 90° (E) 17:29:30
HORYU 2 27 Jun 17:26:55 17:31:18 73° 76° (ENE) 17:35:45 437.375
NOAA 15 27 Jun 17:29:51 17:33:06 17° 64° (ENE) 17:36:20 137.62
ISS 27 Jun 17:32:08 17:35:09 35° 228° (SW) 17:38:09 145.825
AO-7 27 Jun 17:36:44 17:43:44 30° 263° (W) 17:50:49 29.400- 29.500
STARS 27 Jun 17:42:04 17:46:29 81° 103° (ESE) 17:50:54 437.465
NOAA 18 27 Jun 17:46:39 17:50:31 20° 64° (ENE) 17:54:24 137.9125
GOMX 1 27 Jun 18:01:04 18:02:13 11° 66° (ENE) 18:03:20 467.674
Cubesat XI-IV 27 Jun 18:01:33 18:05:43 24° 67° (ENE) 18:09:54 437.490
GONETS M04 27 Jun 18:02:19 18:08:34 23° 82° (E) 18:14:48
CUBESAT XI-V 27 Jun 18:12:18 18:16:27 32° 97° (E) 18:20:33 437.345
MOZHAYETS 4 27 Jun 18:25:49 18:29:07 19° 292° (WNW) 18:32:22
SRMSAT 27 Jun 18:26:32 18:29:08 13° 169° (S) 18:31:44 437.500
CUTE-I 27 Jun 18:35:08 18:40:15 50° 72° (ENE) 18:45:26 437.470
Cosmos 2499 27 Jun 18:44:35 18:51:16 29° 83° (E) 18:58:17 435.465 / 435.565
KKS-1 27 Jun 18:46:07 18:46:58 10° 296° (WNW) 18:47:51 437.445
BRITE-PL 27 Jun 18:55:10 19:00:23 77° 258° (WSW) 19:05:12 437.365/2234.400
AIST 1 27 Jun 19:00:19 19:03:21 19° 285° (WNW) 19:06:24
JUGNU 27 Jun 19:01:33 19:05:08 16° 185° (S) 19:08:42 437.505
CUSAT 1 27 Jun 19:04:20 19:07:22 25° 73° (ENE) 19:09:54 437.405
DOVE 4 27 Jun 19:04:38 19:08:06 23° 71° (ENE) 19:11:28 437.250
NOAA 15 27 Jun 19:07:11 19:12:22 56° 259° (W) 19:17:35 137.62
RS-15 27 Jun 19:09:56 19:18:10 20° 25° (NNE) 19:26:25 29.354- 29.394
LilacSat-2 27 Jun 19:15:40 19:19:23 56° 261° (W) 19:23:07 437.200
DANDE 27 Jun 19:16:42 19:19:49 17° 66° (ENE) 19:22:27 436.750
NOAA 18 27 Jun 19:25:31 19:30:45 48° 259° (W) 19:36:04 137.9125
GOMX 1 27 Jun 19:35:09 19:39:51 63° 259° (WSW) 19:44:16 467.674
Cubesat XI-IV 27 Jun 19:40:34 19:45:31 38° 261° (W) 19:50:30 437.490
CANX-2 27 Jun 19:45:06 19:48:02 18° 68° (ENE) 19:50:59 2200.000
CUBESAT XI-V 27 Jun 19:50:10 19:53:36 21° 292° (WNW) 19:57:01 437.345
GONETS M04 27 Jun 19:55:54 20:04:32 66° 279° (W) 20:13:11
CUTE 1.7 + AOD 2 27 Jun 20:04:36 20:08:10 26° 71° (ENE) 20:11:45 437.475
CINEMA 3 27 Jun 20:08:01 20:11:42 31° 72° (ENE) 20:15:23 145.822/145.860
HO-68 27 Jun 20:09:23 20:16:13 51° 69° (ENE) 20:23:06 435.675
SEEDS 27 Jun 20:10:55 20:14:12 22° 70° (ENE) 20:17:29 437.485
SRMSAT 27 Jun 20:13:50 20:17:32 17° 179° (S) 20:21:13 437.500
CUBEBUG 2 27 Jun 20:15:35 20:16:23 10° 65° (ENE) 20:17:11 437.445
CUTE-I 27 Jun 20:17:03 20:20:32 18° 267° (W) 20:24:03 437.470
Cosmos 2499 27 Jun 20:35:50 20:43:47 54° 281° (WNW) 20:52:20 435.465 / 435.565
DOVE 4 27 Jun 20:42:07 20:45:42 24° 263° (W) 20:49:11 437.250
STRAND 1 27 Jun 20:43:07 20:48:18 82° 103° (ESE) 20:53:26 437.568
AUBIESAT-1 27 Jun 20:45:48 20:48:00 17° 65° (ENE) 20:50:13 437.475
ZACube-1 27 Jun 20:46:33 20:47:23 10° 65° (ENE) 20:48:14 437.345
AAUSAT CUBESAT 2 27 Jun 20:52:28 20:56:19 36° 73° (ENE) 21:00:11 437.432
JUGNU 27 Jun 20:52:34 20:53:21 10° 195° (SSW) 20:54:08 437.505
Oscar 11 27 Jun 20:56:32 20:59:14 16° 67° (ENE) 21:01:56 145.826/435.025
DANDE 27 Jun 20:58:52 21:02:49 27° 273° (W) 21:05:56 436.750
AO-85 27 Jun 21:01:18 21:04:19 15° 107° (ESE) 21:07:20 145.980
UWE-3 27 Jun 21:02:17 21:05:44 26° 70° (ENE) 21:09:14 435.000/436.395/437.385
FUNcube-1 27 Jun 21:02:51 21:05:24 16° 67° (ENE) 21:07:59 145.935
DELFI C3 27 Jun 21:16:20 21:17:01 10° 66° (ENE) 21:17:42 145.870
CANX-2 27 Jun 21:19:47 21:23:38 32° 263° (W) 21:27:30 2200.000
RS-15 27 Jun 21:22:09 21:34:17 57° 53° (NE) 21:46:13 29.354- 29.394
M-CUBED/EXP-1 PRIME 27 Jun 21:23:03 21:26:20 78° 73° (ENE) 21:29:36 437.505
COMPASS 1 27 Jun 21:25:08 21:29:19 67° 259° (WSW) 21:33:32 437.405
CUTE 1.7 + AOD 2 27 Jun 21:40:37 21:43:56 22° 265° (W) 21:47:16 437.475
PRISM 27 Jun 21:43:27 21:47:26 52° 101° (E) 21:51:23 437.425
SEEDS 27 Jun 21:46:11 21:49:44 26° 264° (W) 21:53:19 437.485
CINEMA 3 27 Jun 21:46:18 21:48:55 16° 266° (W) 21:51:32 145.822/145.860
CUBEBUG 2 27 Jun 21:48:25 21:52:27 55° 260° (W) 21:56:37 437.445
HO-68 27 Jun 21:58:19 22:04:08 27° 264° (W) 22:10:00 435.675
SRMSAT 27 Jun 22:02:57 22:05:56 14° 189° (S) 22:08:55 437.500
HUMSAT D 27 Jun 22:06:07 22:09:07 20° 69° (ENE) 22:12:09 437.325/437.525
ZACube-1 27 Jun 22:19:02 22:23:06 57° 259° (W) 22:27:19 437.345
AUBIESAT-1 27 Jun 22:19:56 22:22:24 19° 259° (W) 22:24:51 437.475
STRAND 1 27 Jun 22:25:26 22:26:43 11° 299° (WNW) 22:28:00 437.568
AAUSAT CUBESAT 2 27 Jun 22:29:28 22:31:53 15° 267° (W) 22:34:21 437.432
Oscar 11 27 Jun 22:31:00 22:35:02 37° 262° (W) 22:39:05 145.826/435.025
FUNcube-1 27 Jun 22:37:28 22:41:19 36° 263° (W) 22:45:14 145.935
AO-85 27 Jun 22:38:54 22:44:19 66° 301° (WNW) 22:49:36 145.980
UWE-3 27 Jun 22:38:58 22:42:08 21° 265° (W) 22:45:23 435.000/436.395/437.385
DELFI C3 27 Jun 22:47:26 22:51:22 53° 260° (W) 22:55:20 145.870
ANTELSAT 27 Jun 22:54:16 22:57:50 21° 95° (E) 23:01:25 437.575/2403.000
ESTCUBE 1 27 Jun 23:16:43 23:20:17 23° 69° (ENE) 23:23:51 437.505/2401.250
PRISM 27 Jun 23:21:14 23:22:14 11° 295° (WNW) 23:23:15 437.425
AISAT 27 Jun 23:25:22 23:28:23 18° 67° (ENE) 23:31:22 437.250
UKube-1 27 Jun 23:31:58 23:33:41 12° 65° (ENE) 23:35:26 .
RS-15 27 Jun 23:35:15 23:46:22 42° 254° (WSW) 23:57:18 29.354- 29.394
HUMSAT D 27 Jun 23:40:56 23:44:31 28° 264° (W) 23:48:10 437.325/437.525
50 SAT 27 Jun 23:42:44 23:45:50 25° 71° (ENE) 23:48:56 437.505
TIGRISAT 27 Jun 23:45:17 23:49:56 77° 101° (E) 23:54:39 435.000
DX 1 27 Jun 23:48:09 23:51:38 24° 69° (ENE) 23:55:07 434.975-435.025
UNISAT 6 27 Jun 23:50:06 23:54:47 89° 283° (WNW) 23:59:29 437.425
YUBILEINY 28 Jun 00:12:27 00:20:43 42° 76° (ENE) 00:28:56 435.215
CUBEBUG 1 28 Jun 00:13:43 00:18:03 67° 76° (ENE) 00:22:23 437.445
NANOSAT C BR1 28 Jun 00:15:17 00:18:44 24° 96° (E) 00:22:10 145.865
QB50P1 28 Jun 00:17:36 00:21:13 27° 97° (E) 00:24:50 145.935-145.965
VELOX 1 28 Jun 00:19:21 00:23:44 72° 75° (ENE) 00:28:08 145.980
POPSAT HIP 1 28 Jun 00:20:39 00:24:22 28° 97° (E) 00:28:04 437.405
AO-85 28 Jun 00:24:32 00:25:42 11° 318° (NW) 00:26:51 145.980
ANTELSAT 28 Jun 00:30:23 00:34:32 32° 289° (WNW) 00:38:41 437.575/2403.000
QB50P2 28 Jun 00:32:27 00:36:32 43° 99° (E) 00:40:36 145.880/145.840
POLYITAN 1 28 Jun 00:35:03 00:39:10 44° 99° (E) 00:43:16 437.675
DUCHIFAT 1 28 Jun 00:35:52 00:39:51 39° 99° (E) 00:43:49 145.980
ESTCUBE 1 28 Jun 00:52:59 00:56:55 28° 263° (W) 01:00:51 437.505/2401.250
TISAT 1 28 Jun 00:57:33 01:00:24 18° 68° (ENE) 01:03:16 437.305
AISAT 28 Jun 01:00:33 01:04:34 34° 262° (W) 01:08:36 437.250
UKube-1 28 Jun 01:05:03 01:09:15 52° 259° (W) 01:13:28 .
SPROUT 28 Jun 01:08:11 01:12:25 74° 258° (WSW) 01:16:40 437.525
